* Astronomy

Members Login
Username 
 
Password 
    Remember Me  
Post Info TOPIC: Asteroid 2012 KJ18


L

Posts: 131433
Date:
Asteroid 2012 KJ18
Permalink  
 


Orbital elements:
2012 KJ18                                                Earth MOID = 0.1790 AU
Epoch 2012 Mar. 14.0 TT = JDT 2456000.5                 MPC
M 333.25365              (2000.0)            P               Q
n   0.28864706     Peri.  181.99436     +0.32081889     +0.93354311
a   2.2675557      Node   106.74641     -0.86665637     +0.35745205
e   0.4727450      Incl.    9.61323     -0.38207588     -0.02693139
P   3.41           H   19.4           G   0.15           U   9

MPEC 2012 - K44



__________________
Page 1 of 1  sorted by
 
Quick Reply

Please log in to post quick replies.



Create your own FREE Forum
Report Abuse
Powered by ActiveBoard